User: anonymous   Login
Location: Bergnerzell
(49.1816°N, 10.2565°E)
Time: 19:04:16
(UTC+00:00)
Language:

Genesis I - Orbit

View from above orbital plane
View from above orbital plane
View from above satellite
View from above satellite

Ground track
Ground track

The orbit data is extracted from the following two-line orbital elements,

1 29252U 06029A   24201.91445963  .00024203  00000-0  59581-3 0  9999
2 29252  64.5154  55.4719 0027355 317.8419  42.0611 15.40189437995620
Epoch (UTC): 19 July 2024 21:56:49
Eccentricity: 0.0027355
inclination: 64.5154°
perigee height: 427 km
apogee height: 464 km
right ascension of ascending node: 55.4719°
argument of perigee: 317.8419°
revolutions per day: 15.40189437
mean anomaly at epoch: 42.0611°
orbit number at epoch: 99562

The dashed part of the orbit path shows where the satellite is in the earth's shadow,  

DLR